Вернуться в каталог

STARLINK-32557

АктивенСвязьVLEO
NORAD 62127·PAYLOAD·🇺🇸 United States

Запущен Nov 27, 2024 с Cape Canaveral Space Force Station

Loading…

Ближайшие Пролёты (ближайшие 24 часа)

TLE

СвежийSource: CelesTrak SupGP

Эпоха: Sep 14, 2026, 21:36 UTC

1 62127C 24222P   26257.90048611 -.00057703  00000+0 -20900-2 0  2574
2 62127  42.9998 137.0169 0001369 269.5778 216.9221 15.27607519    18

Отслеживайте STARLINK-32557 в реальном времени с AllMySat

Download on the App Store